Location: Ateni
(41.9059°N, 44.0982°E)
Time: 00:54:07
(UTC+00:00)

Daily predictions for brighter satellites

Satellite Brightness Start Highest point End
(mag) Time Altitude Azimuth Time Altitude Azimuth Time Altitude Azimuth
IDEFIX/ARIANE 42P 3.1 00:00:42 10° N 00:05:41 44° WNW 00:09:04 19° SW
DNEPR-1 R/B 3.8 00:03:57 20° SSW 00:06:44 62° ESE 00:11:12 10° NE
ARIANE 5 R/B 4.1 00:04:03 10° NNE 00:08:33 32° E 00:13:00 10° SSE
CBERS-1 4.1 00:06:24 10° NNE 00:11:32 82° ESE 00:16:25 11° SSW
Meteor 1-21 Rocket 4.2 00:09:07 16° SSW 00:13:42 68° WNW 00:19:16 10° N
GPS 2-04 Rocket1 4.2 00:16:42 15° S 00:17:54 18° SSE 00:20:21 10° ESE
Cosmos 2056 Rocket 4.2 00:13:02 10° S 00:18:00 51° ESE 00:23:06 10° NNE
Cosmos 2369 Rocket 2.1 00:13:51 10° NNW 00:19:25 67° WSW 00:24:56 10° SSE
Cosmos 962 Rocket 4.5 00:13:28 10° NNW 00:19:32 65° W 00:25:33 10° S
Cosmos 2181 Rocket 4.1 00:13:49 10° S 00:20:04 84° E 00:26:16 10° N
SL-16 R/B 3.7 00:16:08 12° WSW 00:20:08 24° NW 00:24:43 10° N
IRS-1D 3.9 00:17:52 10° N 00:23:03 52° WNW 00:27:26 14° SW
Cosmos 2251 Rocket 3.7 00:21:04 10° NNW 00:26:11 53° WSW 00:31:18 10° S
COSMOS 2455 3.6 00:21:40 14° WSW 00:26:24 40° NW 00:32:04 10° NNE
OAO 2 Rocket 4.4 00:23:27 15° SW 00:26:33 28° SSE 00:30:44 10° ESE
Cosmos 2228 3.8 00:23:24 10° NNW 00:27:20 34° W 00:30:47 12° SSW
Cosmos 1656 Rocket 3.5 00:23:50 10° NNW 00:29:13 70° WSW 00:34:36 10° SSE
Cosmos 1892 3.3 00:26:41 10° S 00:30:23 54° E 00:34:05 10° NNE
Cosmos 864 Rocket 4.5 00:26:19 10° N 00:32:31 90° WSW 00:38:39 10° S
Cosmos 1190 Rocket 4.4 00:28:43 10° NNW 00:34:00 68° ENE 00:39:16 10° SSE
Cosmos 2058 Rocket 3.2 00:30:29 10° N 00:34:53 78° E 00:39:14 10° S
Cosmos 1603 3.9 00:37:53 11° SW 00:43:12 60° WNW 00:48:50 10° NNE
Cosmos 1408 2.5 00:41:29 10° S 00:45:07 79° W 00:48:46 10° N
[s.n.52708] 2.7 00:45:40 12° SW 00:48:12 70° SE 00:51:01 10° NE
[s.n.52707] 2.7 00:45:47 12° SW 00:48:19 70° SE 00:51:07 10° NE
[s.n.52703] 2.7 00:45:53 12° SW 00:48:25 70° SE 00:51:14 10° NE
[s.n.52705] 2.7 00:45:59 12° SW 00:48:31 70° SE 00:51:20 10° NE
[s.n.52706] 2.7 00:46:05 12° SW 00:48:38 71° SE 00:51:27 10° NE
PAYLOAD A 3.9 00:43:59 10° NNE 00:48:44 87° WNW 00:53:35 10° SSW
[s.n.52701] 2.7 00:46:12 12° SW 00:48:44 71° SE 00:51:33 10° NE
[s.n.52704] 2.7 00:46:18 12° SW 00:48:50 71° SE 00:51:40 10° NE
[s.n.52699] 2.7 00:46:24 12° SW 00:48:57 71° SE 00:51:46 10° NE
[s.n.52702] 2.7 00:46:30 12° SW 00:49:04 72° SE 00:51:53 10° NE
[s.n.52697] 2.7 00:46:37 12° SW 00:49:11 72° SE 00:52:00 10° NE
[s.n.52700] 2.7 00:46:43 12° SW 00:49:16 72° SE 00:52:06 10° NE
[s.n.52695] 2.7 00:46:50 12° SW 00:49:23 72° SE 00:52:13 10° NE
[s.n.52698] 2.7 00:46:55 12° SW 00:49:30 72° SE 00:52:19 10° NE
[s.n.52693] 2.7 00:47:02 12° SW 00:49:37 73° SE 00:52:26 10° NE
[s.n.52696] 2.7 00:47:08 12° SW 00:49:43 73° SE 00:52:33 10° NE
[s.n.52691] 2.7 00:47:14 12° SW 00:49:49 73° SE 00:52:39 10° NE
[s.n.52689] 2.7 00:47:21 12° SW 00:49:57 73° SE 00:52:47 10° NE
[s.n.52694] 2.7 00:47:27 12° SW 00:50:03 74° SE 00:52:53 10° NE
[s.n.52692] 2.7 00:47:34 12° SW 00:50:10 74° SE 00:53:00 10° NE
[s.n.52687] 2.6 00:47:40 12° SW 00:50:16 74° SE 00:53:06 10° NE
[s.n.52685] 2.7 00:47:46 11° SW 00:50:23 74° SE 00:53:13 10° NE
[s.n.52690] 2.6 00:47:53 11° SW 00:50:30 74° SE 00:53:20 10° NE
[s.n.52688] 2.6 00:47:59 11° SW 00:50:36 75° SE 00:53:26 10° NE
[s.n.52683] 2.6 00:48:05 11° SW 00:50:43 75° SE 00:53:33 10° NE
[s.n.52686] 2.6 00:48:12 11° SW 00:50:50 75° SE 00:53:40 10° NE
[s.n.52681] 2.6 00:48:19 11° SW 00:50:57 75° SE 00:53:47 10° NE
[s.n.52679] 2.6 00:48:25 11° SW 00:51:03 76° SE 00:53:53 10° NE
[s.n.52684] 2.6 00:48:31 11° SW 00:51:10 76° SE 00:54:00 10° NE
[s.n.52682] 2.6 00:48:38 11° SW 00:51:16 76° SE 00:54:06 10° NE
[s.n.52677] 2.6 00:48:44 11° SW 00:51:24 76° SE 00:54:13 10° NE
[s.n.52680] 2.6 00:48:51 11° SW 00:51:30 77° SE 00:54:20 10° NE
[s.n.52675] 2.6 00:48:57 11° SW 00:51:37 77° SE 00:54:26 10° NE
[s.n.52678] 2.6 00:49:04 11° SW 00:51:44 77° SE 00:54:34 10° NE
[s.n.52673] 2.6 00:49:11 11° SW 00:51:52 77° SE 00:54:41 10° NE
[s.n.52676] 2.6 00:49:17 11° SW 00:51:57 78° SE 00:54:48 10° NE
[s.n.52671] 2.6 00:49:24 11° SW 00:52:04 78° SE 00:54:54 10° NE
[s.n.52669] 2.6 00:49:31 11° SW 00:52:11 78° SE 00:55:01 10° NE
[s.n.52674] 2.6 00:49:37 11° SW 00:52:18 78° SE 00:55:08 10° NE
[s.n.52672] 2.6 00:49:43 11° SW 00:52:24 79° SE 00:55:15 10° NE
[s.n.52667] 2.6 00:49:50 11° SW 00:52:32 79° SE 00:55:22 10° NE
[s.n.52665] 2.6 00:49:57 11° SW 00:52:39 79° SE 00:55:30 10° NE
[s.n.52670] 2.6 00:50:03 11° SW 00:52:45 79° SE 00:55:36 10° NE
[s.n.52668] 2.6 00:50:10 11° SW 00:52:53 80° SE 00:55:43 10° NE
[s.n.52666] 2.6 00:50:16 11° SW 00:52:59 80° SE 00:55:50 10° NE
[s.n.52663] 2.6 00:50:23 11° SW 00:53:06 80° SE 00:55:57 10° NE
[s.n.52662] 2.6 00:50:29 11° SW 00:53:13 80° SE 00:56:04 10° NE
[s.n.52664] 2.6 00:50:36 11° SW 00:53:20 81° SE 00:56:11 10° NE
[s.n.52661] 2.6 00:50:44 11° SW 00:53:27 81° SE 00:56:17 10° NE
[s.n.52660] 2.6 00:50:50 11° SW 00:53:34 81° SE 00:56:24 10° NE
[s.n.52656] 2.6 00:50:57 11° SW 00:53:41 81° SE 00:56:31 10° NE
[s.n.52658] 2.6 00:51:03 11° SW 00:53:48 82° SE 00:56:39 10° NE
[s.n.52659] 2.6 00:51:09 11° SW 00:53:55 82° SE 00:56:46 10° NE
[s.n.52657] 2.6 00:51:17 11° SW 00:54:02 82° SE 00:56:53 10° NE
ALOS 2.4 00:54:54 10° N 00:59:31 64° WNW 01:04:07 10° SSW
CZ-2C R/B 2.6 00:55:43 10° N 01:00:49 67° WNW 01:05:45 10° SSW
Cosmos 2366 rocket 4.2 00:57:03 10° NNW 01:02:58 50° W 01:08:54 10° SSW
Lacrosse 5 4.0 01:01:45 10° WNW 01:05:27 20° NNW 01:09:10 10° NNE
Cosmos 1420 Rocket 4.0 01:00:28 10° SSW 01:05:38 76° WNW 01:10:50 10° NNE
